Corpus Christi, TX

2:38 AM CDT on October 19, 2017 (GMT -0500)
Corpus Christi International

Weather History for KCRP - August, 2013

Change the Weather History Date:

Monday, August 26, 2013

  Actual Average Record
Temperature  
Mean Temperature 84 °F 84 °F  
Max Temperature 90 °F 94 °F 101 °F (1990)
Min Temperature 77 °F 75 °F 68 °F (1961)
Degree Days  
Heating Degree Days 0 0  
Month to date heating degree days 0 0  
Since 1 June heating degree days 0 0  
Since 1 July heating degree days 0 0  
Cooling Degree Days 19 19  
Month to date cooling degree days 575 518  
Year to date cooling degree days 2908 2468  
Since 1 June cooling degree days 1890 1627  
Growing Degree Days 34 (Base 50)    
Moisture  
Dew Point 75 °F    
Average Humidity 78    
Maximum Humidity 91    
Minimum Humidity 65    
Precipitation  
Precipitation 0.55 in 0.13 in 4.14 in (1945)
Month to date precipitation 1.15 2.19  
Year to date precipitation 10.95 18.61  
Snow  
Snow 0.00 in - - ()
Month to date snowfall 0.0  
Since 1 June snowfall 0.0  
Since 1 July snowfall 0.0  
Snow Depth 0.00 in    
Sea Level Pressure  
Sea Level Pressure 30.02 in    
Wind  
Wind Speed 7 mph (SE)    
Max Wind Speed 20 mph    
Max Gust Speed 24 mph    
Visibility 8 miles    
Events Rain , Thunderstorm    
T = Trace of Precipitation, MM = Missing Value Source: NWS Daily Summary

Daily Weather History Graph

Daily Weather History Graph

Search for Another Location

Airport or City:

Trip Planner

Search our weather history database for the weather conditions in past years. The results will help you decide how hot, cold, wet, or windy it might be!

Date:

Astronomy

Aug. 26, 2013 Rise Set
Actual Time 7:06 AM CDT 7:56 PM CDT
Civil Twilight 6:42 AM CDT 8:20 PM CDT
Nautical Twilight 6:13 AM CDT 8:49 PM CDT
Astronomical Twilight 5:44 AM CDT 9:18 PM CDT
Moon 11:45 PM CDT (8/26) 12:33 PM CDT (8/26)
Length of Visible Light 13h 38m
Length of Day
12h 50m
Waning Gibbous, 66% of the Moon is Illuminated
Aug 26
Waning Gibbous
Aug 28
Last Quarter
Sep 5
New
Sep 12
First Quarter
Sep 19
Full

Hourly Weather History & Observations

Time (CDT) Temp. Heat Index Dew Point Humidity Pressure Visibility Wind Dir Wind Speed Gust Speed Precip Events Conditions
12:51 AM 82.9 °F 89.4 °F 73.9 °F 74% 30.01 in 10.0 mi SE 5.8 mph - N/A   Partly Cloudy
1:47 AM 82.4 °F 88.2 °F 73.4 °F 74% 30.01 in 10.0 mi SE 13.8 mph 19.6 mph N/A   Mostly Cloudy
1:51 AM 82.9 °F 90.2 °F 75.0 °F 77% 30.01 in 10.0 mi SE 13.8 mph 19.6 mph N/A   Mostly Cloudy
2:49 AM 78.8 °F - 73.4 °F 83% 29.99 in 10.0 mi South 3.5 mph - 0.00 in   Mostly Cloudy
2:51 AM 80.1 °F 84.5 °F 73.9 °F 81% 29.99 in 10.0 mi South 3.5 mph - 0.00 in   Mostly Cloudy
3:16 AM 80.6 °F 85.4 °F 73.4 °F 79% 30.00 in 10.0 mi South 4.6 mph - N/A   Mostly Cloudy
3:36 AM 80.6 °F 85.4 °F 73.4 °F 79% 30.00 in 10.0 mi South 4.6 mph - 0.00 in Rain Light Rain
3:51 AM 80.1 °F 84.5 °F 73.9 °F 81% 30.00 in 10.0 mi SSE 10.4 mph - 0.00 in   Mostly Cloudy
4:51 AM 78.1 °F - 73.9 °F 87% 30.01 in 10.0 mi South 6.9 mph - 0.01 in Rain Light Rain
5:51 AM 78.1 °F - 73.9 °F 87% 30.01 in 10.0 mi South 3.5 mph - 0.00 in   Mostly Cloudy
6:51 AM 78.1 °F - 73.9 °F 87% 30.01 in 10.0 mi Calm Calm - N/A   Mostly Cloudy
7:51 AM 79.0 °F - 73.9 °F 84% 30.04 in 10.0 mi NNW 4.6 mph - N/A   Mostly Cloudy
8:51 AM 82.9 °F 89.4 °F 73.9 °F 74% 30.04 in 10.0 mi North 8.1 mph - 0.00 in   Mostly Cloudy
9:51 AM 86.0 °F 93.8 °F 73.9 °F 67% 30.06 in 10.0 mi NNW 5.8 mph - N/A   Mostly Cloudy
10:51 AM 81.0 °F 86.7 °F 75.0 °F 82% 30.07 in 2.0 mi SE 15.0 mph - 0.02 in Rain Heavy Rain
10:53 AM 80.6 °F 86.2 °F 75.2 °F 84% 30.07 in 4.0 mi SE 12.7 mph - 0.02 in Rain Heavy Rain
11:01 AM 78.8 °F - 75.2 °F 89% 30.07 in 1.2 mi ESE 11.5 mph - 0.09 in Rain Heavy Rain
11:05 AM 80.6 °F 86.2 °F 75.2 °F 84% 30.07 in 3.0 mi ESE 9.2 mph - 0.17 in Rain Heavy Rain
11:17 AM 80.6 °F 85.4 °F 73.4 °F 79% 30.07 in 10.0 mi East 6.9 mph - 0.29 in   Overcast
11:51 AM 84.0 °F 91.9 °F 75.0 °F 74% 30.05 in 10.0 mi ENE 8.1 mph - 0.29 in   Mostly Cloudy
12:51 PM 84.9 °F 93.3 °F 75.0 °F 72% 30.05 in 10.0 mi East 6.9 mph - N/A   Scattered Clouds
1:51 PM 88.0 °F 97.5 °F 75.0 °F 65% 30.03 in 10.0 mi East 8.1 mph - N/A   Mostly Cloudy
2:51 PM 84.0 °F 91.2 °F 73.9 °F 72% 30.03 in 10.0 mi SE 18.4 mph - N/A   Mostly Cloudy
3:06 PM 80.6 °F 86.2 °F 75.2 °F 84% 30.03 in 1.0 mi SSE 16.1 mph 21.9 mph 0.01 in Rain Rain
3:23 PM 78.8 °F - 75.2 °F 89% 30.02 in 3.0 mi South 8.1 mph - 0.12 in Rain Heavy Rain
3:46 PM 78.8 °F - 75.2 °F 89% 30.03 in 3.0 mi South 3.5 mph - 0.17 in Rain , Thunderstorm Light Thunderstorms and Rain
3:51 PM 80.1 °F 85.4 °F 75.9 °F 87% 30.02 in 5.0 mi South 3.5 mph - 0.17 in Rain , Thunderstorm Light Thunderstorms and Rain
4:22 PM 78.8 °F - 75.2 °F 89% 30.01 in 8.0 mi Calm Calm - 0.05 in Rain Light Rain
4:51 PM 80.1 °F 85.4 °F 75.9 °F 87% 29.99 in 10.0 mi SSE 3.5 mph - 0.06 in Rain Light Rain
5:51 PM 81.0 °F 87.3 °F 75.9 °F 85% 30.00 in 10.0 mi NE 5.8 mph - 0.00 in Rain Light Rain
6:51 PM 81.0 °F 86.7 °F 75.0 °F 82% 30.00 in 10.0 mi NE 5.8 mph - 0.00 in   Scattered Clouds
7:51 PM 81.0 °F 87.3 °F 75.9 °F 85% 30.01 in 10.0 mi ENE 5.8 mph - N/A   Scattered Clouds
8:51 PM 81.0 °F 87.9 °F 77.0 °F 88% 30.01 in 10.0 mi East 8.1 mph - N/A   Partly Cloudy
9:51 PM 81.0 °F 86.7 °F 75.0 °F 82% 30.03 in 10.0 mi ESE 6.9 mph - N/A   Partly Cloudy
10:51 PM 80.1 °F 84.5 °F 73.9 °F 81% 30.04 in 10.0 mi ESE 6.9 mph - N/A   Partly Cloudy
11:51 PM 79.0 °F - 73.9 °F 84% 30.03 in 10.0 mi ESE 5.8 mph - N/A   Partly Cloudy